This is the latest recevied weather packets stored in our database for station/object OE3APM-13. If no packets are shown the sender has not sent any weather packets the latest 10 day(s).
| Time | Temp. | Humidity | Pressure | Rain* | Wind** | Luminosity | Snow |
|---|---|---|---|---|---|---|---|
| 1788528307 | 28.89° C | 43% | 1016.1 hPa | 0 mm | - | 563 W/m² | - |
| 1788528007 | 28.89° C | 43% | 1016.2 hPa | 0 mm | - | 571 W/m² | - |
| 1788527706 | 28.89° C | 41% | 1016.3 hPa | 0 mm | - | 580 W/m² | - |
| 1788527405 | 28.89° C | 42% | 1016.3 hPa | 0 mm | - | 596 W/m² | - |
| 1788527106 | 28.89° C | 43% | 1016.6 hPa | 0 mm | - | 610 W/m² | - |
| 1788526806 | 28.89° C | 43% | 1016.6 hPa | 0 mm | - | 629 W/m² | - |
| 1788526503 | 28.89° C | 42% | 1016.7 hPa | 0 mm | - | 582 W/m² | - |
| 1788526203 | 28.33° C | 43% | 1016.7 hPa | 0 mm | - | 605 W/m² | - |
| 1788525904 | 28.33° C | 42% | 1016.9 hPa | 0 mm | - | 656 W/m² | - |
| 1788525602 | 28.33° C | 44% | 1016.9 hPa | 0 mm | - | 661 W/m² | - |
| 1788525303 | 28.33° C | 44% | 1017 hPa | 0 mm | - | 640 W/m² | - |
| 1788525004 | 28.33° C | 44% | 1017 hPa | 0 mm | - | 694 W/m² | - |
| 1788524705 | 28.33° C | 44% | 1017 hPa | 0 mm | - | 635 W/m² | - |
| 1788524402 | 28.89° C | 44% | 1017 hPa | 0 mm | - | 680 W/m² | - |
| 1788524103 | 28.33° C | 45% | 1017.1 hPa | 0 mm | - | 689 W/m² | - |
| 1788523802 | 28.33° C | 46% | 1017.2 hPa | 0 mm | - | 759 W/m² | - |
| 1788523504 | 28.33° C | 47% | 1017.3 hPa | 0 mm | - | 759 W/m² | - |
| 1788523203 | 28.33° C | 46% | 1017.4 hPa | 0 mm | - | 434 W/m² | - |
| 1788522903 | 28.33° C | 47% | 1017.5 hPa | 0 mm | - | 744 W/m² | - |
| 1788522602 | 28.33° C | 45% | 1017.6 hPa | 0 mm | - | 613 W/m² | - |
| 1788522302 | 28.33° C | 45% | 1017.5 hPa | 0 mm | - | 694 W/m² | - |
| 1788522004 | 27.78° C | 47% | 1017.6 hPa | 0 mm | - | 731 W/m² | - |
| 1788521696 | 27.78° C | 47% | 1017.6 hPa | 0 mm | - | 884 W/m² | - |
| 1788521396 | 27.22° C | 47% | 1017.7 hPa | 0 mm | - | 763 W/m² | - |
| 1788521088 | 27.22° C | 49% | 1017.8 hPa | 0 mm | - | 819 W/m² | - |
* Rain latest hour (hover to see other rain measurements)
** Current wind speed in m/s (hover to see current wind gust speed)